Year,Month,Day,Hour,Minute,Value (Times are PST for temperature in C)
2008,09,27,00,00,13.50
2008,09,27,00,01,13.50
2008,09,27,00,02,13.50
2008,09,27,00,03,13.50
2008,09,27,00,04,13.50
2008,09,27,00,05,13.50
2008,09,27,00,06,13.50
2008,09,27,00,07,13.50
2008,09,27,00,08,13.50
2008,09,27,00,09,13.50
2008,09,27,00,10,13.50
2008,09,27,00,11,13.50
2008,09,27,00,12,13.40
2008,09,27,00,13,13.40
2008,09,27,00,14,13.40
2008,09,27,00,15,13.40
2008,09,27,00,16,13.40
2008,09,27,00,17,13.40
2008,09,27,00,18,13.40
2008,09,27,00,19,13.40
2008,09,27,00,20,13.40
2008,09,27,00,21,13.40
2008,09,27,00,22,13.40
2008,09,27,00,23,13.30
2008,09,27,00,24,13.30
2008,09,27,00,25,13.30
2008,09,27,00,26,13.30
2008,09,27,00,27,13.30
2008,09,27,00,28,13.30
2008,09,27,00,29,13.30
2008,09,27,00,30,13.30
2008,09,27,00,31,13.30
2008,09,27,00,32,13.30
2008,09,27,00,33,13.30
2008,09,27,00,34,13.30
2008,09,27,00,35,13.30
2008,09,27,00,36,13.30
2008,09,27,00,37,13.20
2008,09,27,00,38,13.20
2008,09,27,00,39,13.20
2008,09,27,00,40,13.20
2008,09,27,00,41,13.20
2008,09,27,00,42,13.20
2008,09,27,00,43,13.20
2008,09,27,00,44,13.20
2008,09,27,00,45,13.20
2008,09,27,00,46,13.20
2008,09,27,00,47,13.20
2008,09,27,00,48,13.20
2008,09,27,00,49,13.20
2008,09,27,00,50,13.20
2008,09,27,00,51,13.20
2008,09,27,00,52,13.20
2008,09,27,00,53,13.20
2008,09,27,00,54,13.20
2008,09,27,00,55,13.20
2008,09,27,00,56,13.20
2008,09,27,00,57,13.20
2008,09,27,00,58,13.20
2008,09,27,00,59,13.20
2008,09,27,01,00,13.20
2008,09,27,01,01,13.20
2008,09,27,01,02,13.20
2008,09,27,01,03,13.20
2008,09,27,01,04,13.20
2008,09,27,01,05,13.20
2008,09,27,01,06,13.20
2008,09,27,01,07,13.20
2008,09,27,01,08,13.20
2008,09,27,01,09,13.20
2008,09,27,01,10,13.20
2008,09,27,01,11,13.20
2008,09,27,01,12,13.20
2008,09,27,01,13,13.20
2008,09,27,01,14,13.20
2008,09,27,01,15,13.20
2008,09,27,01,16,13.10
2008,09,27,01,17,13.10
2008,09,27,01,18,13.10
2008,09,27,01,19,13.10
2008,09,27,01,20,13.10
2008,09,27,01,21,13.10
2008,09,27,01,22,13.10
2008,09,27,01,23,13.10
2008,09,27,01,24,13.10
2008,09,27,01,25,13.10
2008,09,27,01,26,13.10
2008,09,27,01,27,13.10
2008,09,27,01,28,13.10
2008,09,27,01,29,13.00
2008,09,27,01,30,13.00
2008,09,27,01,31,13.00
2008,09,27,01,32,13.00
2008,09,27,01,33,12.90
2008,09,27,01,34,12.90
2008,09,27,01,35,12.90
2008,09,27,01,36,12.80
2008,09,27,01,37,12.80
2008,09,27,01,38,12.80
2008,09,27,01,39,12.80
2008,09,27,01,40,12.80
2008,09,27,01,41,12.80
2008,09,27,01,42,12.80
2008,09,27,01,43,12.80
2008,09,27,01,44,12.80
2008,09,27,01,45,12.80
2008,09,27,01,46,12.80
2008,09,27,01,47,12.80
2008,09,27,01,48,12.80
2008,09,27,01,49,12.70
2008,09,27,01,50,12.70
2008,09,27,01,51,12.70
2008,09,27,01,52,12.70
2008,09,27,01,53,12.70
2008,09,27,01,54,12.60
2008,09,27,01,55,12.60
2008,09,27,01,56,12.60
2008,09,27,01,57,12.60
2008,09,27,01,58,12.60
2008,09,27,01,59,12.60
2008,09,27,02,00,12.60
2008,09,27,02,01,12.60
2008,09,27,02,02,12.60
2008,09,27,02,03,12.60
2008,09,27,02,04,12.60
2008,09,27,02,05,12.60
2008,09,27,02,06,12.70
2008,09,27,02,07,12.70
2008,09,27,02,08,12.70
2008,09,27,02,09,12.70
2008,09,27,02,10,12.70
2008,09,27,02,11,12.70
2008,09,27,02,12,12.70
2008,09,27,02,13,12.70
2008,09,27,02,14,12.70
2008,09,27,02,15,12.60
2008,09,27,02,16,12.60
2008,09,27,02,17,12.60
2008,09,27,02,18,12.60
2008,09,27,02,19,12.50
2008,09,27,02,20,12.50
2008,09,27,02,21,12.40
2008,09,27,02,22,12.30
2008,09,27,02,23,12.30
2008,09,27,02,24,12.30
2008,09,27,02,25,12.30
2008,09,27,02,26,12.20
2008,09,27,02,27,12.20
2008,09,27,02,28,12.20
2008,09,27,02,29,12.10
2008,09,27,02,30,12.10
2008,09,27,02,31,12.00
2008,09,27,02,32,12.00
2008,09,27,02,33,11.90
2008,09,27,02,34,11.90
2008,09,27,02,35,11.80
2008,09,27,02,36,11.80
2008,09,27,02,37,11.70
2008,09,27,02,38,11.70
2008,09,27,02,39,11.60
2008,09,27,02,40,11.60
2008,09,27,02,41,11.60
2008,09,27,02,42,11.50
2008,09,27,02,43,11.40
2008,09,27,02,44,11.40
2008,09,27,02,45,11.40
2008,09,27,02,46,11.30
2008,09,27,02,47,11.30
2008,09,27,02,48,11.30
2008,09,27,02,49,11.20
2008,09,27,02,50,11.20
2008,09,27,02,51,11.10
2008,09,27,02,52,11.10
2008,09,27,02,53,11.10
2008,09,27,02,54,11.10
2008,09,27,02,55,11.10
2008,09,27,02,56,11.10
2008,09,27,02,57,11.10
2008,09,27,02,58,11.00
2008,09,27,02,59,10.90
2008,09,27,03,00,10.90
2008,09,27,03,01,10.90
2008,09,27,03,02,10.90
2008,09,27,03,03,10.90
2008,09,27,03,04,10.90
2008,09,27,03,05,10.90
2008,09,27,03,06,10.90
2008,09,27,03,07,10.90
2008,09,27,03,08,10.90
2008,09,27,03,09,10.90
2008,09,27,03,10,10.90
2008,09,27,03,11,10.90
2008,09,27,03,12,10.90
2008,09,27,03,13,10.90
2008,09,27,03,14,10.90
2008,09,27,03,15,10.80
2008,09,27,03,16,10.80
2008,09,27,03,17,10.80
2008,09,27,03,18,10.80
2008,09,27,03,19,10.80
2008,09,27,03,20,10.80
2008,09,27,03,21,10.70
2008,09,27,03,22,10.70
2008,09,27,03,23,10.70
2008,09,27,03,24,10.70
2008,09,27,03,25,10.70
2008,09,27,03,26,10.70
2008,09,27,03,27,10.60
2008,09,27,03,28,10.60
2008,09,27,03,29,10.60
2008,09,27,03,30,10.60
2008,09,27,03,31,10.60
2008,09,27,03,32,10.60
2008,09,27,03,33,10.60
2008,09,27,03,34,10.60
2008,09,27,03,35,10.60
2008,09,27,03,36,10.60
2008,09,27,03,37,10.60
2008,09,27,03,38,10.60
2008,09,27,03,39,10.60
2008,09,27,03,40,10.60
2008,09,27,03,41,10.60
2008,09,27,03,42,10.40
2008,09,27,03,43,10.40
2008,09,27,03,44,10.40
2008,09,27,03,45,10.40
2008,09,27,03,46,10.40
2008,09,27,03,47,10.40
2008,09,27,03,48,10.40
2008,09,27,03,49,10.40
2008,09,27,03,50,10.30
2008,09,27,03,51,10.30
2008,09,27,03,52,10.30
2008,09,27,03,53,10.20
2008,09,27,03,54,10.20
2008,09,27,03,55,10.10
2008,09,27,03,56,10.10
2008,09,27,03,57,10.10
2008,09,27,03,58,10.10
2008,09,27,03,59,10.10
2008,09,27,04,00,9.90
2008,09,27,04,01,9.90
2008,09,27,04,02,9.90
2008,09,27,04,03,9.90
2008,09,27,04,04,9.90
2008,09,27,04,05,9.90
2008,09,27,04,06,9.90
2008,09,27,04,07,9.90
2008,09,27,04,08,9.90
2008,09,27,04,09,9.90
2008,09,27,04,10,9.90
2008,09,27,04,11,9.80
2008,09,27,04,12,9.80
2008,09,27,04,13,9.80
2008,09,27,04,14,9.80
2008,09,27,04,15,9.80
2008,09,27,04,16,9.80
2008,09,27,04,17,9.80
2008,09,27,04,18,9.80
2008,09,27,04,19,9.80
2008,09,27,04,20,9.80
2008,09,27,04,21,9.80
2008,09,27,04,22,9.80
2008,09,27,04,23,9.80
2008,09,27,04,24,9.80
2008,09,27,04,25,9.80
2008,09,27,04,26,9.80
2008,09,27,04,27,9.80
2008,09,27,04,28,9.80
2008,09,27,04,29,9.80
2008,09,27,04,30,9.70
2008,09,27,04,31,9.70
2008,09,27,04,32,9.70
2008,09,27,04,33,9.70
2008,09,27,04,34,9.70
2008,09,27,04,35,9.70
2008,09,27,04,36,9.70
2008,09,27,04,37,9.70
2008,09,27,04,38,9.70
2008,09,27,04,39,9.70
2008,09,27,04,40,9.70
2008,09,27,04,41,9.70
2008,09,27,04,42,9.70
2008,09,27,04,43,9.70
2008,09,27,04,44,9.70
2008,09,27,04,45,9.70
2008,09,27,04,46,9.70
2008,09,27,04,47,9.70
2008,09,27,04,48,9.70
2008,09,27,04,49,9.70
2008,09,27,04,50,9.70
2008,09,27,04,51,9.70
2008,09,27,04,52,9.70
2008,09,27,04,53,9.70
2008,09,27,04,54,9.70
2008,09,27,04,55,9.70
2008,09,27,04,56,9.70
2008,09,27,04,57,9.70
2008,09,27,04,58,9.70
2008,09,27,04,59,9.70
2008,09,27,05,00,9.70
2008,09,27,05,01,9.70
2008,09,27,05,02,9.70
2008,09,27,05,03,9.70
2008,09,27,05,04,9.70
2008,09,27,05,05,9.70
2008,09,27,05,06,9.70
2008,09,27,05,07,9.70
2008,09,27,05,08,9.70
2008,09,27,05,09,9.80
2008,09,27,05,10,9.80
2008,09,27,05,11,9.80
2008,09,27,05,12,9.90
2008,09,27,05,13,9.90
2008,09,27,05,14,9.90
2008,09,27,05,15,9.90
2008,09,27,05,16,10.10
2008,09,27,05,17,10.10
2008,09,27,05,18,10.10
2008,09,27,05,19,10.10
2008,09,27,05,20,10.20
2008,09,27,05,21,10.20
2008,09,27,05,22,10.30
2008,09,27,05,23,10.30
2008,09,27,05,24,10.30
2008,09,27,05,25,10.30
2008,09,27,05,26,10.30
2008,09,27,05,27,10.30
2008,09,27,05,28,10.30
2008,09,27,05,29,10.30
2008,09,27,05,30,10.30
2008,09,27,05,31,10.30
2008,09,27,05,32,10.30
2008,09,27,05,33,10.30
2008,09,27,05,34,10.30
2008,09,27,05,35,10.40
2008,09,27,05,36,10.40
2008,09,27,05,37,10.40
2008,09,27,05,38,10.40
2008,09,27,05,39,10.40
2008,09,27,05,40,10.40
2008,09,27,05,41,10.40
2008,09,27,05,42,10.40
2008,09,27,05,43,10.40
2008,09,27,05,44,10.40
2008,09,27,05,45,10.40
2008,09,27,05,46,10.40
2008,09,27,05,47,10.40
2008,09,27,05,48,10.40
2008,09,27,05,49,10.40
2008,09,27,05,50,10.40
2008,09,27,05,51,10.40
2008,09,27,05,52,10.40
2008,09,27,05,53,10.40
2008,09,27,05,54,10.40
2008,09,27,05,55,10.40
2008,09,27,05,56,10.40
2008,09,27,05,57,10.50
2008,09,27,05,58,10.60
2008,09,27,05,59,10.60
2008,09,27,06,00,10.60
2008,09,27,06,01,10.60
2008,09,27,06,02,10.60
2008,09,27,06,03,10.60
2008,09,27,06,04,10.60
2008,09,27,06,05,10.60
2008,09,27,06,06,10.60
2008,09,27,06,07,10.60
2008,09,27,06,08,10.60
2008,09,27,06,09,10.60
2008,09,27,06,10,10.60
2008,09,27,06,11,10.60
2008,09,27,06,12,10.70
2008,09,27,06,13,10.70
2008,09,27,06,14,10.80
2008,09,27,06,15,10.80
2008,09,27,06,16,10.90
2008,09,27,06,17,10.90
2008,09,27,06,18,10.90
2008,09,27,06,19,10.90
2008,09,27,06,20,11.00
2008,09,27,06,21,11.10
2008,09,27,06,22,11.10
2008,09,27,06,23,11.10
2008,09,27,06,24,11.10
2008,09,27,06,25,11.10
2008,09,27,06,26,11.10
2008,09,27,06,27,11.10
2008,09,27,06,28,11.10
2008,09,27,06,29,11.10
2008,09,27,06,30,11.10
2008,09,27,06,31,11.10
2008,09,27,06,32,11.20
2008,09,27,06,33,11.20
2008,09,27,06,34,11.20
2008,09,27,06,35,11.20
2008,09,27,06,36,11.20
2008,09,27,06,37,11.20
2008,09,27,06,38,11.20
2008,09,27,06,39,11.20
2008,09,27,06,40,11.20
2008,09,27,06,41,11.20
2008,09,27,06,42,11.20
2008,09,27,06,43,11.20
2008,09,27,06,44,11.20
2008,09,27,06,45,11.20
2008,09,27,06,46,11.20
2008,09,27,06,47,11.20
2008,09,27,06,48,11.20
2008,09,27,06,49,11.20
2008,09,27,06,50,11.20
2008,09,27,06,51,11.30
2008,09,27,06,52,11.30
2008,09,27,06,53,11.30
2008,09,27,06,54,11.30
2008,09,27,06,55,11.30
2008,09,27,06,56,11.30
2008,09,27,06,57,11.30
2008,09,27,06,58,11.30
2008,09,27,06,59,11.40
2008,09,27,07,00,11.40
2008,09,27,07,01,11.40
2008,09,27,07,02,11.40
2008,09,27,07,03,11.40
2008,09,27,07,04,11.40
2008,09,27,07,05,11.40
2008,09,27,07,06,11.50
2008,09,27,07,07,11.60
2008,09,27,07,08,11.60
2008,09,27,07,09,11.60
2008,09,27,07,10,11.60
2008,09,27,07,11,11.60
2008,09,27,07,12,11.60
2008,09,27,07,13,11.60
2008,09,27,07,14,11.60
2008,09,27,07,15,11.60
2008,09,27,07,16,11.60
2008,09,27,07,17,11.60
2008,09,27,07,18,11.70
2008,09,27,07,19,11.70
2008,09,27,07,20,11.70
2008,09,27,07,21,11.70
2008,09,27,07,22,11.70
2008,09,27,07,23,11.70
2008,09,27,07,24,11.70
2008,09,27,07,25,11.70
2008,09,27,07,26,11.70
2008,09,27,07,27,11.70
2008,09,27,07,28,11.70
2008,09,27,07,29,11.70
2008,09,27,07,30,11.70
2008,09,27,07,31,11.70
2008,09,27,07,32,11.70
2008,09,27,07,33,11.70
2008,09,27,07,34,11.70
2008,09,27,07,35,11.70
2008,09,27,07,36,11.70
2008,09,27,07,37,11.70
2008,09,27,07,38,11.70
2008,09,27,07,39,11.70
2008,09,27,07,40,11.70
2008,09,27,07,41,11.70
2008,09,27,07,42,11.70
2008,09,27,07,43,11.70
2008,09,27,07,44,11.70
2008,09,27,07,45,11.60
2008,09,27,07,46,11.60
2008,09,27,07,47,11.60
2008,09,27,07,48,11.60
2008,09,27,07,49,11.60
2008,09,27,07,50,11.60
2008,09,27,07,51,11.60
2008,09,27,07,52,11.60
2008,09,27,07,53,11.60
2008,09,27,07,54,11.60
2008,09,27,07,55,11.60
2008,09,27,07,56,11.60
2008,09,27,07,57,11.60
2008,09,27,07,58,11.60
2008,09,27,07,59,11.60
2008,09,27,08,00,11.60
2008,09,27,08,01,11.60
2008,09,27,08,02,11.60
2008,09,27,08,03,11.60
2008,09,27,08,04,11.60
2008,09,27,08,05,11.60
2008,09,27,08,06,11.60
2008,09,27,08,07,11.50
2008,09,27,08,08,11.40
2008,09,27,08,09,11.40
2008,09,27,08,10,11.40
2008,09,27,08,11,11.40
2008,09,27,08,12,11.40
2008,09,27,08,13,11.40
2008,09,27,08,14,11.40
2008,09,27,08,15,11.40
2008,09,27,08,16,11.40
2008,09,27,08,17,11.40
2008,09,27,08,18,11.40
2008,09,27,08,19,11.40
2008,09,27,08,20,11.40
2008,09,27,08,21,11.40
2008,09,27,08,22,11.40
2008,09,27,08,23,11.40
2008,09,27,08,24,11.40
2008,09,27,08,25,11.40
2008,09,27,08,26,11.40
2008,09,27,08,27,11.40
2008,09,27,08,28,11.30
2008,09,27,08,29,11.30
2008,09,27,08,30,11.30
2008,09,27,08,31,11.30
2008,09,27,08,32,11.30
2008,09,27,08,33,11.30
2008,09,27,08,34,11.30
2008,09,27,08,35,11.30
2008,09,27,08,36,11.30
2008,09,27,08,37,11.30
2008,09,27,08,38,11.30
2008,09,27,08,39,11.30
2008,09,27,08,40,11.30
2008,09,27,08,41,11.30
2008,09,27,08,42,11.30
2008,09,27,08,43,11.30
2008,09,27,08,44,11.30
2008,09,27,08,45,11.40
2008,09,27,08,46,11.40
2008,09,27,08,47,11.40
2008,09,27,08,48,11.40
2008,09,27,08,49,11.40
2008,09,27,08,50,11.40
2008,09,27,08,51,11.40
2008,09,27,08,52,11.40
2008,09,27,08,53,11.40
2008,09,27,08,54,11.40
2008,09,27,08,55,11.40
2008,09,27,08,56,11.40
2008,09,27,08,57,11.40
2008,09,27,08,58,11.40
2008,09,27,08,59,11.50
2008,09,27,09,00,11.60
2008,09,27,09,01,11.60
2008,09,27,09,02,11.60
2008,09,27,09,03,11.60
2008,09,27,09,04,11.60
2008,09,27,09,05,11.60
2008,09,27,09,06,11.60
2008,09,27,09,07,11.60
2008,09,27,09,08,11.60
2008,09,27,09,09,11.60
2008,09,27,09,10,11.60
2008,09,27,09,11,11.70
2008,09,27,09,12,11.70
2008,09,27,09,13,11.70
2008,09,27,09,14,11.70
2008,09,27,09,15,11.80
2008,09,27,09,16,11.80
2008,09,27,09,17,11.80
2008,09,27,09,18,11.80
2008,09,27,09,19,11.80
2008,09,27,09,20,11.90
2008,09,27,09,21,11.90
2008,09,27,09,22,12.00
2008,09,27,09,23,12.10
2008,09,27,09,24,12.10
2008,09,27,09,25,12.20
2008,09,27,09,26,12.30
2008,09,27,09,27,12.30
2008,09,27,09,28,12.30
2008,09,27,09,29,12.40
2008,09,27,09,30,12.40
2008,09,27,09,31,12.40
2008,09,27,09,32,12.50
2008,09,27,09,33,12.50
2008,09,27,09,34,12.60
2008,09,27,09,35,12.60
2008,09,27,09,36,12.60
2008,09,27,09,37,12.60
2008,09,27,09,38,12.60
2008,09,27,09,39,12.50
2008,09,27,09,40,12.60
2008,09,27,09,41,12.70
2008,09,27,09,42,12.80
2008,09,27,09,43,12.80
2008,09,27,09,44,12.80
2008,09,27,09,45,12.90
2008,09,27,09,46,12.90
2008,09,27,09,47,12.90
2008,09,27,09,48,12.90
2008,09,27,09,49,12.80
2008,09,27,09,50,12.80
2008,09,27,09,51,12.90
2008,09,27,09,52,12.90
2008,09,27,09,53,12.80
2008,09,27,09,54,12.90
2008,09,27,09,55,13.00
2008,09,27,09,56,13.00
2008,09,27,09,57,13.10
2008,09,27,09,58,13.10
2008,09,27,09,59,13.20
2008,09,27,10,00,13.30
2008,09,27,10,01,13.30
2008,09,27,10,02,13.30
2008,09,27,10,03,13.30
2008,09,27,10,04,13.30
2008,09,27,10,05,13.40
2008,09,27,10,06,13.40
2008,09,27,10,07,13.40
2008,09,27,10,08,13.30
2008,09,27,10,09,13.30
2008,09,27,10,10,13.30
2008,09,27,10,11,13.30
2008,09,27,10,12,13.30
2008,09,27,10,13,13.30
2008,09,27,10,14,13.30
2008,09,27,10,15,13.30
2008,09,27,10,16,13.30
2008,09,27,10,17,13.30
2008,09,27,10,18,13.30
2008,09,27,10,19,13.30
2008,09,27,10,20,13.30
2008,09,27,10,21,13.30
2008,09,27,10,22,13.30
2008,09,27,10,23,13.30
2008,09,27,10,24,13.30
2008,09,27,10,25,13.30
2008,09,27,10,26,13.30
2008,09,27,10,27,13.30
2008,09,27,10,28,13.30
2008,09,27,10,29,13.30
2008,09,27,10,30,13.40
2008,09,27,10,31,13.50
2008,09,27,10,32,13.50
2008,09,27,10,33,13.50
2008,09,27,10,34,13.60
2008,09,27,10,35,13.60
2008,09,27,10,36,13.70
2008,09,27,10,37,13.70
2008,09,27,10,38,13.70
2008,09,27,10,39,13.70
2008,09,27,10,40,13.80
2008,09,27,10,41,13.80
2008,09,27,10,42,13.80
2008,09,27,10,43,13.80
2008,09,27,10,44,13.80
2008,09,27,10,45,13.80
2008,09,27,10,46,13.90
2008,09,27,10,47,13.90
2008,09,27,10,48,13.90
2008,09,27,10,49,13.90
2008,09,27,10,50,13.90
2008,09,27,10,51,13.90
2008,09,27,10,52,13.90
2008,09,27,10,53,13.90
2008,09,27,10,54,13.90
2008,09,27,10,55,13.90
2008,09,27,10,56,13.90
2008,09,27,10,57,13.90
2008,09,27,10,58,13.90
2008,09,27,10,59,14.00
2008,09,27,11,00,14.00
2008,09,27,11,01,14.00
2008,09,27,11,02,14.00
2008,09,27,11,03,14.00
2008,09,27,11,04,14.00
2008,09,27,11,05,14.00
2008,09,27,11,06,14.00
2008,09,27,11,07,14.00
2008,09,27,11,08,14.10
2008,09,27,11,09,14.10
2008,09,27,11,10,14.10
2008,09,27,11,11,14.10
2008,09,27,11,12,14.00
2008,09,27,11,13,14.00
2008,09,27,11,14,13.90
2008,09,27,11,15,13.90
2008,09,27,11,16,13.80
2008,09,27,11,17,13.90
2008,09,27,11,18,13.90
2008,09,27,11,19,13.90
2008,09,27,11,20,13.70
2008,09,27,11,21,13.70
2008,09,27,11,22,13.70
2008,09,27,11,23,13.60
2008,09,27,11,24,13.60
2008,09,27,11,25,13.60
2008,09,27,11,26,13.60
2008,09,27,11,27,13.60
2008,09,27,11,28,13.60
2008,09,27,11,29,13.60
2008,09,27,11,30,13.50
2008,09,27,11,31,13.50
2008,09,27,11,32,13.50
2008,09,27,11,33,13.50
2008,09,27,11,34,13.50
2008,09,27,11,35,13.40
2008,09,27,11,36,13.40
2008,09,27,11,37,13.40
2008,09,27,11,38,13.40
2008,09,27,11,39,13.40
2008,09,27,11,40,13.50
2008,09,27,11,41,13.50
2008,09,27,11,42,13.60
2008,09,27,11,43,13.60
2008,09,27,11,44,13.60
2008,09,27,11,45,13.70
2008,09,27,11,46,13.70
2008,09,27,11,47,13.70
2008,09,27,11,48,13.70
2008,09,27,11,49,13.80
2008,09,27,11,50,13.80
2008,09,27,11,51,13.70
2008,09,27,11,52,13.70
2008,09,27,11,53,13.70
2008,09,27,11,54,13.70
2008,09,27,11,55,13.70
2008,09,27,11,56,13.70
2008,09,27,11,57,13.70
2008,09,27,11,58,13.70
2008,09,27,11,59,13.70
2008,09,27,12,00,13.60
2008,09,27,12,01,13.60
2008,09,27,12,02,13.60
2008,09,27,12,03,13.60
2008,09,27,12,04,13.60
2008,09,27,12,05,13.60
2008,09,27,12,06,13.60
2008,09,27,12,07,13.60
2008,09,27,12,08,13.70
2008,09,27,12,09,13.70
2008,09,27,12,10,13.70
2008,09,27,12,11,13.70
2008,09,27,12,12,13.70
2008,09,27,12,13,13.70
2008,09,27,12,14,13.70
2008,09,27,12,15,13.70
2008,09,27,12,16,13.70
2008,09,27,12,17,13.90
2008,09,27,12,18,13.90
2008,09,27,12,19,13.90
2008,09,27,12,20,13.80
2008,09,27,12,21,13.80
2008,09,27,12,22,13.90
2008,09,27,12,23,13.90
2008,09,27,12,24,14.00
2008,09,27,12,25,13.90
2008,09,27,12,26,14.00
2008,09,27,12,27,14.10
2008,09,27,12,28,14.20
2008,09,27,12,29,14.20
2008,09,27,12,30,14.20
2008,09,27,12,31,14.20
2008,09,27,12,32,14.20
2008,09,27,12,33,14.20
2008,09,27,12,34,14.30
2008,09,27,12,35,14.40
2008,09,27,12,36,14.50
2008,09,27,12,37,14.60
2008,09,27,12,38,14.60
2008,09,27,12,39,14.60
2008,09,27,12,40,14.60
2008,09,27,12,41,14.60
2008,09,27,12,42,14.50
2008,09,27,12,43,14.60
2008,09,27,12,44,14.60
2008,09,27,12,45,14.60
2008,09,27,12,46,14.50
2008,09,27,12,47,14.40
2008,09,27,12,48,14.20
2008,09,27,12,49,14.20
2008,09,27,12,50,14.30
2008,09,27,12,51,14.40
2008,09,27,12,52,14.40
2008,09,27,12,53,14.40
2008,09,27,12,54,14.40
2008,09,27,12,55,14.50
2008,09,27,12,56,14.50
2008,09,27,12,57,14.50
2008,09,27,12,58,14.50
2008,09,27,12,59,14.50
2008,09,27,13,00,14.60
2008,09,27,13,01,14.70
2008,09,27,13,02,14.80
2008,09,27,13,03,14.80
2008,09,27,13,04,14.90
2008,09,27,13,05,15.10
2008,09,27,13,06,15.20
2008,09,27,13,07,15.30
2008,09,27,13,08,15.30
2008,09,27,13,09,15.50
2008,09,27,13,10,15.50
2008,09,27,13,11,15.70
2008,09,27,13,12,15.70
2008,09,27,13,13,15.60
2008,09,27,13,14,15.50
2008,09,27,13,15,15.50
2008,09,27,13,16,15.50
2008,09,27,13,17,15.60
2008,09,27,13,18,15.60
2008,09,27,13,19,15.60
2008,09,27,13,20,15.60
2008,09,27,13,21,15.60
2008,09,27,13,22,15.50
2008,09,27,13,23,15.50
2008,09,27,13,24,15.40
2008,09,27,13,25,15.40
2008,09,27,13,26,15.40
2008,09,27,13,27,15.30
2008,09,27,13,28,15.40
2008,09,27,13,29,15.50
2008,09,27,13,30,15.60
2008,09,27,13,31,15.60
2008,09,27,13,32,15.70
2008,09,27,13,33,15.70
2008,09,27,13,34,15.70
2008,09,27,13,35,15.70
2008,09,27,13,36,15.70
2008,09,27,13,37,15.60
2008,09,27,13,38,15.50
2008,09,27,13,39,15.60
2008,09,27,13,40,15.60
2008,09,27,13,41,15.80
2008,09,27,13,42,15.90
2008,09,27,13,43,16.00
2008,09,27,13,44,16.10
2008,09,27,13,45,16.10
2008,09,27,13,46,16.10
2008,09,27,13,47,16.10
2008,09,27,13,48,16.00
2008,09,27,13,49,15.90
2008,09,27,13,50,16.10
2008,09,27,13,51,16.10
2008,09,27,13,52,16.20
2008,09,27,13,53,16.20
2008,09,27,13,54,16.30
2008,09,27,13,55,16.30
2008,09,27,13,56,16.30
2008,09,27,13,57,16.40
2008,09,27,13,58,16.40
2008,09,27,13,59,16.40
2008,09,27,14,00,16.40
2008,09,27,14,01,16.60
2008,09,27,14,02,16.60
2008,09,27,14,03,16.60
2008,09,27,14,04,16.70
2008,09,27,14,05,16.70
2008,09,27,14,06,16.70
2008,09,27,14,07,16.70
2008,09,27,14,08,16.70
2008,09,27,14,09,16.80
2008,09,27,14,10,16.80
2008,09,27,14,11,16.70
2008,09,27,14,12,16.70
2008,09,27,14,13,16.70
2008,09,27,14,14,16.70
2008,09,27,14,15,16.70
2008,09,27,14,16,16.80
2008,09,27,14,17,16.90
2008,09,27,14,18,17.00
2008,09,27,14,19,16.90
2008,09,27,14,20,16.80
2008,09,27,14,21,16.80
2008,09,27,14,22,16.80
2008,09,27,14,23,16.70
2008,09,27,14,24,16.80
2008,09,27,14,25,16.90
2008,09,27,14,26,17.10
2008,09,27,14,27,17.20
2008,09,27,14,28,17.30
2008,09,27,14,29,17.40
2008,09,27,14,30,17.40
2008,09,27,14,31,17.40
2008,09,27,14,32,17.40
2008,09,27,14,33,17.30
2008,09,27,14,34,17.30
2008,09,27,14,35,17.30
2008,09,27,14,36,17.30
2008,09,27,14,37,17.30
2008,09,27,14,38,17.30
2008,09,27,14,39,17.10
2008,09,27,14,40,17.10
2008,09,27,14,41,17.10
2008,09,27,14,42,17.10
2008,09,27,14,43,17.00
2008,09,27,14,44,17.00
2008,09,27,14,45,17.00
2008,09,27,14,46,17.00
2008,09,27,14,47,17.00
2008,09,27,14,48,17.10
2008,09,27,14,49,17.10
2008,09,27,14,50,17.20
2008,09,27,14,51,17.30
2008,09,27,14,52,17.30
2008,09,27,14,53,17.40
2008,09,27,14,54,17.50
2008,09,27,14,55,17.60
2008,09,27,14,56,17.70
2008,09,27,14,57,17.70
2008,09,27,14,58,17.70
2008,09,27,14,59,17.70
2008,09,27,15,00,17.70
2008,09,27,15,01,17.70
2008,09,27,15,02,17.80
2008,09,27,15,03,17.90
2008,09,27,15,04,17.90
2008,09,27,15,05,17.90
2008,09,27,15,06,17.90
2008,09,27,15,07,17.90
2008,09,27,15,08,18.00
2008,09,27,15,09,18.10
2008,09,27,15,10,18.10
2008,09,27,15,11,18.10
2008,09,27,15,12,18.10
2008,09,27,15,13,18.10
2008,09,27,15,14,18.20
2008,09,27,15,15,18.20
2008,09,27,15,16,18.30
2008,09,27,15,17,18.30
2008,09,27,15,18,18.30
2008,09,27,15,19,18.30
2008,09,27,15,20,18.30
2008,09,27,15,21,18.20
2008,09,27,15,22,18.20
2008,09,27,15,23,18.20
2008,09,27,15,24,18.20
2008,09,27,15,25,18.10
2008,09,27,15,26,18.10
2008,09,27,15,27,18.10
2008,09,27,15,28,18.10
2008,09,27,15,29,18.10
2008,09,27,15,30,18.10
2008,09,27,15,31,18.10
2008,09,27,15,32,18.10
2008,09,27,15,33,18.10
2008,09,27,15,34,18.20
2008,09,27,15,35,18.20
2008,09,27,15,36,18.10
2008,09,27,15,37,18.10
2008,09,27,15,38,17.90
2008,09,27,15,39,18.00
2008,09,27,15,40,18.10
2008,09,27,15,41,18.20
2008,09,27,15,42,18.20
2008,09,27,15,43,18.30
2008,09,27,15,44,18.30
2008,09,27,15,45,18.30
2008,09,27,15,46,18.30
2008,09,27,15,47,18.20
2008,09,27,15,48,18.20
2008,09,27,15,49,18.20
2008,09,27,15,50,18.20
2008,09,27,15,51,18.20
2008,09,27,15,52,18.20
2008,09,27,15,53,18.20
2008,09,27,15,54,18.20
2008,09,27,15,55,18.20
2008,09,27,15,56,18.20
2008,09,27,15,57,18.20
2008,09,27,15,58,18.30
2008,09,27,15,59,18.30
2008,09,27,16,00,18.30
2008,09,27,16,01,18.30
2008,09,27,16,02,18.20
2008,09,27,16,03,18.20
2008,09,27,16,04,18.20
2008,09,27,16,05,18.30
2008,09,27,16,06,18.50
2008,09,27,16,07,18.60
2008,09,27,16,08,18.70
2008,09,27,16,09,18.70
2008,09,27,16,10,18.70
2008,09,27,16,11,18.80
2008,09,27,16,12,18.70
2008,09,27,16,13,18.70
2008,09,27,16,14,18.60
2008,09,27,16,15,18.70
2008,09,27,16,16,18.80
2008,09,27,16,17,18.70
2008,09,27,16,18,18.70
2008,09,27,16,19,18.80
2008,09,27,16,20,18.80
2008,09,27,16,21,18.80
2008,09,27,16,22,18.80
2008,09,27,16,23,18.80
2008,09,27,16,24,18.70
2008,09,27,16,25,18.70
2008,09,27,16,26,18.60
2008,09,27,16,27,18.50
2008,09,27,16,28,18.40
2008,09,27,16,29,18.30
2008,09,27,16,30,18.20
2008,09,27,16,31,18.20
2008,09,27,16,32,18.10
2008,09,27,16,33,18.00
2008,09,27,16,34,17.90
2008,09,27,16,35,17.90
2008,09,27,16,36,17.90
2008,09,27,16,37,17.90
2008,09,27,16,38,17.90
2008,09,27,16,39,17.90
2008,09,27,16,40,17.90
2008,09,27,16,41,17.90
2008,09,27,16,42,18.00
2008,09,27,16,43,18.10
2008,09,27,16,44,18.10
2008,09,27,16,45,18.10
2008,09,27,16,46,18.00
2008,09,27,16,47,17.90
2008,09,27,16,48,17.90
2008,09,27,16,49,17.90
2008,09,27,16,50,17.90
2008,09,27,16,51,17.80
2008,09,27,16,52,17.80
2008,09,27,16,53,17.70
2008,09,27,16,54,17.60
2008,09,27,16,55,17.60
2008,09,27,16,56,17.50
2008,09,27,16,57,17.50
2008,09,27,16,58,17.40
2008,09,27,16,59,17.30
2008,09,27,17,00,17.30
2008,09,27,17,01,17.30
2008,09,27,17,02,17.30
2008,09,27,17,03,17.30
2008,09,27,17,04,17.20
2008,09,27,17,05,17.20
2008,09,27,17,06,17.20
2008,09,27,17,07,17.10
2008,09,27,17,08,17.10
2008,09,27,17,09,17.10
2008,09,27,17,10,17.10
2008,09,27,17,11,17.00
2008,09,27,17,12,17.00
2008,09,27,17,13,17.00
2008,09,27,17,14,17.00
2008,09,27,17,15,16.90
2008,09,27,17,16,16.80
2008,09,27,17,17,16.80
2008,09,27,17,18,16.70
2008,09,27,17,19,16.70
2008,09,27,17,20,16.70
2008,09,27,17,21,16.70
2008,09,27,17,22,16.70